RH
7 6 5 4 6 10 12 10 10 9 9 9 7 6 8 6 7 8 13 16 15 17 16 17 16 15 19 21 23 24 25 30 36 39 44 51 44 36 36 37 41 45 48 50 49 45 45 45 43 41 40 42 43 45 46 43 41 38 39 39 39 46 47 45 47 47 47 46 46 44 43 44 44 44 42 40 37 34 31 28 26 23 23 26 28 26 22 19 19 20 23 24 25 26 28 27 26
6 5 4 5 7 11 12 8 10 10 7 7 7 6 7 6 8 12 18 21 18 20 20 20 20 20 24 26 25 24 28 34 37 39 44 47 44 41 42 44 47 50 51 50 48 45 44 44 41 42 41 41 42 44 45 43 42 41 40 40 38 44 49 46 47 46 44 43 43 43 43 43 44 44 44 42 39 36 33 28 26 24 22 24 26 26 23 20 19 19 22 25 25 27 29 29 28
5 4 5 6 9 11 11 9 8 9 8 7 6 6 7 6 9 15 20 23 20 19 21 21 23 24 25 27 29 31 37 39 37 40 43 43 44 45 47 47 48 51 52 51 48 44 43 44 43 43 42 41 40 41 43 43 43 43 42 40 36 37 42 42 40 38 38 38 39 42 42 42 41 40 40 40 37 34 31 26 26 25 21 22 27 26 24 21 20 20 22 25 26 27 29 30 29
4 4 7 9 9 9 10 9 8 7 8 6 6 6 6 6 10 12 14 22 22 21 23 23 26 29 29 32 34 36 39 39 38 41 43 43 44 47 47 47 48 51 52 50 49 47 43 43 44 43 43 41 40 39 41 42 43 44 43 41 36 31 32 33 32 32 34 36 41 44 43 42 42 41 40 38 37 35 31 28 28 26 21 22 25 25 24 22 20 20 22 25 27 28 29 31 31
4 4 7 10 10 9 11 11 8 7 7 6 5 6 5 7 9 9 9 15 19 21 24 25 29 33 35 35 34 37 38 38 39 40 42 43 43 46 47 46 47 50 49 47 48 46 41 41 44 43 42 40 38 38 39 41 43 45 44 41 38 34 30 29 31 33 37 42 48 51 50 49 49 49 47 43 40 37 35 33 31 28 26 26 26 27 26 23 21 20 22 25 28 30 29 31 32
6 7 6 8 10 9 10 10 8 6 6 6 6 7 7 7 8 8 8 10 14 20 24 26 30 34 36 37 36 39 39 38 39 39 41 43 42 45 46 45 45 46 45 44 45 44 40 41 44 44 42 39 37 37 38 41 44 46 45 43 42 39 36 35 36 40 45 50 55 56 56 55 55 53 51 51 46 42 40 38 35 31 31 31 28 30 31 28 25 22 24 26 29 32 31 31 33
8 8 7 8 8 7 8 8 7 6 6 6 7 8 7 8 8 7 8 8 12 21 26 28 29 31 37 38 39 42 42 41 39 39 41 41 41 43 44 44 45 43 43 44 44 43 42 42 44 44 42 39 37 38 40 45 48 48 47 45 43 42 43 44 43 48 52 54 57 58 58 57 59 58 56 57 52 49 48 44 40 36 33 33 30 30 33 33 29 25 27 28 30 33 33 32 33
8 8 7 8 9 7 8 8 7 7 6 7 6 7 7 7 7 6 8 8 12 21 27 30 27 32 40 38 39 44 45 44 41 40 41 41 40 42 43 43 44 43 43 44 42 44 43 41 43 45 43 41 38 40 45 50 51 50 49 47 45 44 47 50 49 53 55 56 58 58 59 59 63 65 64 63 58 56 56 49 45 43 39 35 30 28 29 30 29 28 32 33 31 33 36 35 34
9 9 7 9 10 9 7 8 8 7 7 6 6 7 8 7 6 6 8 9 11 17 24 29 28 34 44 43 43 45 45 44 42 42 41 42 41 42 44 43 44 44 44 44 43 45 44 42 45 47 45 43 41 43 48 53 55 53 52 51 48 48 53 56 55 57 58 60 59 58 60 61 64 67 66 65 63 58 56 51 46 45 44 39 31 27 27 26 27 29 32 33 31 33 36 37 36
8 8 7 8 10 9 7 7 7 7 7 6 7 8 9 7 7 6 8 11 11 14 22 29 30 34 43 44 45 47 45 44 41 41 41 43 43 43 45 44 45 45 46 46 46 47 44 44 47 49 48 44 43 47 50 54 57 55 54 55 54 55 57 59 61 62 64 65 62 60 61 61 64 66 65 64 63 58 54 50 45 44 44 43 37 29 27 27 28 29 29 30 32 35 36 38 39
9 8 7 9 8 8 7 7 7 7 7 6 8 9 10 9 9 8 8 11 11 15 25 30 31 32 38 41 44 48 46 43 40 41 41 43 44 43 45 46 46 47 49 48 49 50 47 47 51 52 49 46 46 49 53 55 56 57 59 60 60 60 60 62 66 66 69 69 65 64 64 63 65 66 66 63 60 56 51 47 45 45 44 45 42 36 30 28 30 29 29 29 30 34 37 38 40
11 8 7 8 8 8 7 7 7 8 7 7 9 9 11 11 11 10 8 11 10 17 27 31 34 32 36 40 43 47 46 43 41 41 42 43 44 43 45 47 48 48 48 48 50 53 51 52 54 53 50 48 49 51 55 56 57 59 62 65 65 64 64 64 67 70 72 70 68 69 68 66 66 66 65 60 55 52 50 50 50 50 50 47 40 38 36 32 30 30 30 30 29 30 34 38 41
11 10 8 8 8 8 7 8 7 8 7 8 10 8 12 14 14 12 10 11 10 20 28 30 34 34 37 40 43 47 46 45 43 43 43 43 42 43 46 48 47 47 47 48 53 55 57 58 56 55 51 50 51 54 59 59 59 61 63 67 68 68 67 65 67 71 72 71 72 73 69 68 69 65 61 55 52 51 50 53 54 52 53 47 38 35 35 34 33 31 31 32 32 30 30 35 40
11 11 9 9 9 9 8 8 8 7 8 10 10 8 13 19 18 14 11 11 13 24 30 30 32 33 38 40 42 46 46 47 45 44 43 42 42 44 46 46 46 46 47 50 56 59 62 64 60 56 53 50 51 55 61 63 66 65 64 67 68 68 68 66 70 72 73 75 76 75 71 69 67 62 57 54 52 51 50 52 52 52 50 45 41 38 34 33 34 35 34 33 32 32 31 34 40
11 11 10 10 9 9 8 9 9 8 10 12 10 9 14 21 22 16 14 17 20 26 29 32 32 35 43 43 44 48 48 46 43 41 40 40 41 44 45 45 46 47 50 57 64 65 66 68 63 57 52 50 54 59 63 68 73 69 65 67 67 67 69 72 75 76 77 78 75 73 71 68 64 60 56 55 53 51 50 49 48 48 45 43 42 41 38 35 34 35 37 38 36 32 31 34 39
10 10 11 12 10 10 9 9 9 9 11 12 10 10 13 19 23 19 18 22 25 26 28 35 37 38 44 43 43 48 49 44 40 39 37 38 40 43 44 45 47 48 53 58 60 63 64 66 61 56 53 52 60 65 67 74 78 73 70 70 69 71 74 77 78 78 77 77 74 71 69 66 62 60 58 57 55 52 50 48 45 44 42 42 43 42 42 40 38 36 35 39 42 39 35 32 36
10 10 12 12 10 10 10 10 9 10 13 13 11 12 13 17 25 24 22 22 23 26 31 37 40 39 41 42 42 43 44 40 39 38 38 39 40 41 43 46 47 44 46 46 46 52 56 61 61 58 58 59 62 64 67 73 77 77 76 75 75 77 79 79 78 78 77 74 71 68 65 62 61 60 59 57 56 55 52 49 45 43 42 41 42 43 43 43 43 41 36 35 40 43 42 38 36
10 11 12 11 10 11 9 9 10 12 14 13 11 14 13 15 23 29 28 25 25 30 34 37 39 38 40 42 42 40 39 39 39 38 39 40 41 41 42 45 45 41 41 40 44 51 56 64 67 65 63 63 65 64 64 67 73 76 76 78 78 78 79 79 78 76 75 71 67 65 62 61 61 59 57 58 60 59 54 52 49 46 45 44 44 44 43 43 44 44 42 38 37 39 43 47 45
10 11 12 11 11 11 10 10 10 12 13 12 11 13 14 14 21 28 31 30 27 30 33 35 35 36 38 39 40 41 39 39 38 38 40 41 42 42 42 44 42 43 45 43 47 54 63 70 69 69 66 63 65 66 66 68 75 75 73 78 80 80 80 78 76 73 72 69 65 64 62 61 60 58 57 58 62 63 58 56 55 53 52 49 48 47 45 46 45 45 44 43 40 39 46 53 53
11 12 14 11 11 11 10 9 9 11 12 12 11 12 14 14 17 21 29 34 31 30 31 33 34 34 36 37 38 40 38 39 38 40 42 42 43 42 42 44 41 46 49 46 50 56 65 71 69 68 64 61 63 66 70 69 75 78 75 76 81 82 78 74 73 71 69 66 63 62 61 59 59 59 57 56 61 64 61 61 61 58 56 54 53 54 52 50 49 50 48 46 46 48 53 56 56
12 13 12 12 12 11 10 10 10 10 12 12 12 12 13 14 15 16 21 31 36 37 35 36 39 37 37 37 36 38 38 40 41 42 41 41 44 43 43 45 46 51 53 49 51 58 66 68 66 64 61 63 66 71 76 72 75 82 78 76 79 79 73 69 69 67 65 63 62 62 61 59 60 62 59 55 59 60 57 57 56 55 55 56 56 59 60 57 57 59 56 53 54 57 56 55 58
14 12 11 13 13 11 11 11 10 11 11 13 13 13 13 13 15 15 18 27 33 36 35 35 36 34 35 36 35 38 39 41 42 41 40 42 44 44 44 47 50 54 58 55 53 61 68 67 63 62 63 68 70 74 79 76 79 82 79 80 80 76 69 64 63 62 62 62 62 61 59 57 58 61 59 55 56 56 53 50 50 52 56 57 57 62 64 60 62 65 65 64 62 62 60 55 53
13 12 12 12 11 11 11 11 10 10 11 12 14 13 13 13 15 14 18 25 26 26 26 26 28 30 34 36 36 38 41 42 42 41 41 43 44 46 47 50 50 53 61 61 58 61 66 66 66 65 68 71 70 75 79 76 79 83 82 83 77 72 66 60 61 61 59 59 58 57 55 55 57 59 56 51 50 52 52 49 50 54 57 59 59 66 66 61 66 69 70 71 67 64 65 61 55
12 13 13 12 10 10 11 11 10 11 11 12 13 13 14 13 14 15 16 20 21 20 19 21 26 30 34 37 36 38 41 41 42 43 43 43 44 45 48 52 52 54 62 63 59 60 64 66 67 67 70 73 71 75 78 77 80 83 79 73 67 64 61 58 58 57 55 54 52 51 50 53 56 56 52 47 46 48 49 47 48 51 56 60 62 68 69 67 69 71 72 73 70 68 70 68 64
11 12 15 13 11 10 10 10 10 10 11 12 13 14 15 14 14 15 14 18 21 21 21 24 28 32 35 37 36 37 40 42 43 45 45 45 44 44 47 50 52 56 67 72 66 65 68 65 64 65 68 71 71 71 75 77 76 72 66 61 58 55 54 53 51 50 49 48 47 47 48 51 53 51 48 45 44 45 45 45 46 48 53 58 59 65 71 70 72 73 74 75 73 73 74 72 69
11 12 15 14 12 12 11 10 10 10 11 12 12 14 15 15 15 14 16 21 24 24 25 27 31 34 36 37 37 38 41 43 45 47 46 45 43 44 47 48 51 57 67 78 75 71 71 68 65 65 66 69 69 68 70 70 65 61 57 52 49 46 45 46 45 45 45 46 47 47 46 45 45 47 45 44 45 47 47 45 47 48 52 55 57 63 69 71 73 75 75 76 77 76 74 72 72
13 13 14 14 13 13 11 10 11 11 11 11 12 14 14 15 15 15 20 25 25 26 27 29 31 34 37 36 37 39 43 44 45 46 44 44 43 46 50 50 52 56 62 74 78 73 71 72 69 64 64 66 66 66 64 60 56 53 50 46 46 44 42 44 45 46 45 47 50 48 45 41 42 45 46 46 47 48 49 49 50 50 52 56 58 63 67 68 73 74 76 79 78 76 74 72 74
13 12 13 12 12 13 11 11 11 11 11 12 12 13 14 15 14 17 23 27 26 26 28 29 30 32 34 33 35 39 42 43 43 44 43 45 47 46 51 54 56 58 63 74 81 76 72 72 69 62 62 65 64 61 56 51 50 49 46 48 52 49 46 49 49 49 49 49 48 44 42 41 42 45 48 47 47 50 53 55 54 53 56 58 59 63 66 65 67 70 72 75 77 77 76 74 74
12 11 12 12 12 12 11 11 12 12 12 12 13 12 12 14 14 18 24 27 27 27 27 28 29 30 32 31 35 40 43 44 44 43 43 46 48 47 53 59 58 59 61 67 75 74 72 71 66 62 63 64 59 53 49 47 47 49 50 54 56 53 52 54 52 50 49 47 44 42 44 46 47 47 46 45 45 50 54 57 58 57 60 61 60 61 63 64 64 67 70 73 78 79 79 79 76
11 11 12 13 13 13 12 12 12 12 12 12 13 13 13 13 12 18 24 25 26 26 26 28 29 30 30 31 36 42 45 46 44 44 45 47 49 52 56 55 53 57 58 60 68 71 71 69 64 63 64 59 53 48 47 47 47 51 56 58 57 54 53 51 49 45 42 41 40 42 43 46 49 46 44 44 45 48 51 54 57 59 61 62 62 59 60 65 66 70 73 75 78 78 79 81 77
11 12 12 12 13 14 12 13 12 11 13 12 13 13 14 13 14 19 24 24 24 24 25 27 29 29 30 31 37 43 45 47 45 44 48 50 52 55 54 50 49 56 56 58 67 71 71 67 63 65 62 55 50 48 47 49 51 55 58 59 55 51 47 44 41 38 37 37 36 37 38 41 46 44 41 43 44 46 49 51 55 59 60 62 63 59 61 66 68 70 71 73 75 74 77 79 75
12 12 12 11 13 15 14 12 12 12 13 12 13 13 14 14 16 21 23 23 22 22 24 27 29 30 30 31 37 43 45 47 46 45 50 52 52 53 50 49 50 52 54 56 61 66 66 63 64 65 60 56 54 50 50 52 54 56 57 55 50 45 41 39 37 36 36 35 32 32 34 37 40 39 37 40 44 48 50 51 53 56 58 61 64 61 61 64 65 67 67 68 70 69 71 72 69
12 11 14 14 12 14 14 13 12 13 14 13 13 13 14 15 17 20 22 22 22 20 23 27 29 30 29 32 38 44 47 48 46 45 50 51 50 51 51 52 50 49 54 54 55 59 59 60 66 66 62 61 58 54 54 53 52 52 51 47 44 39 37 35 32 29 30 31 28 28 32 34 35 36 39 43 48 52 53 51 51 53 56 59 60 60 61 61 61 63 62 63 65 65 66 65 64
15 11 15 17 14 13 15 15 13 13 14 14 14 13 14 16 17 19 22 22 21 20 22 26 29 30 30 34 39 44 47 48 47 47 51 52 50 51 53 53 51 50 54 56 56 57 58 65 70 68 65 63 60 58 54 50 49 47 44 41 38 36 34 32 29 27 26 28 28 28 30 33 33 38 43 45 48 51 51 50 49 50 53 55 54 56 59 59 59 59 58 60 61 60 61 61 61
18 14 15 17 14 13 15 18 17 15 15 15 15 14 14 16 17 20 22 22 21 21 24 27 29 30 32 36 39 43 46 47 48 48 51 53 53 53 53 53 52 51 53 57 56 56 63 73 74 69 66 62 59 57 51 47 44 42 40 39 38 39 38 33 31 29 27 27 28 27 26 29 32 37 44 47 48 49 48 47 47 47 48 50 50 52 54 56 57 57 57 59 59 57 58 59 60
19 17 16 17 16 14 15 21 21 16 16 16 17 16 15 16 19 22 23 24 23 23 27 28 28 29 32 37 40 41 44 46 46 47 50 52 54 54 53 54 53 53 54 53 54 59 69 72 70 71 67 61 58 53 47 44 42 41 42 44 45 48 45 38 36 33 29 28 26 24 23 25 27 30 36 39 39 40 41 42 44 44 46 46 47 49 51 53 55 55 57 59 57 56 56 58 62
17 17 16 17 18 17 18 21 20 17 18 19 19 19 17 17 21 23 23 25 23 24 29 28 27 29 32 38 41 39 42 45 45 46 49 52 54 54 54 55 54 54 52 49 52 60 68 66 64 70 67 58 55 49 45 43 42 44 48 50 51 52 48 39 36 35 32 29 26 25 24 22 22 22 24 26 27 30 31 34 37 40 43 44 45 47 49 50 51 52 54 55 55 56 57 57 59
17 17 17 18 17 18 21 20 18 18 20 22 21 18 18 18 22 24 24 25 23 24 29 30 27 29 34 39 40 38 41 46 44 45 48 50 54 54 55 55 54 53 50 49 54 58 67 71 71 73 65 55 51 46 43 43 44 48 50 52 54 52 49 45 41 36 32 28 25 26 25 21 20 19 18 19 24 26 27 29 30 33 37 40 43 46 48 49 49 50 52 52 52 53 56 56 56
18 17 19 21 18 19 22 21 19 21 22 24 20 17 19 19 21 24 24 24 24 24 28 30 30 30 35 40 39 37 40 43 41 44 49 51 54 55 56 57 55 53 51 53 58 61 69 77 75 73 64 52 48 44 44 45 45 47 48 48 50 51 50 48 42 34 32 29 24 24 25 23 22 22 20 19 21 22 24 27 27 28 31 34 40 45 48 50 50 49 50 50 49 49 52 53 53
17 18 21 21 19 19 22 23 21 22 24 24 20 18 22 21 20 23 24 24 26 27 28 30 31 32 38 40 38 37 38 40 41 45 50 53 55 56 56 58 57 54 53 54 59 66 75 79 75 69 59 49 46 45 47 48 45 43 43 40 41 45 42 36 34 33 34 33 26 24 25 26 28 25 23 23 22 20 21 23 24 27 27 28 34 40 44 47 48 48 48 49 49 49 49 49 48
16 19 21 21 21 19 23 27 24 23 23 21 18 20 23 23 22 23 25 26 28 29 30 30 33 37 41 40 37 39 40 42 45 48 52 54 55 56 56 58 58 56 53 51 56 65 72 77 74 63 52 47 48 49 49 48 46 43 41 39 38 38 34 33 39 41 40 38 32 27 24 25 31 29 27 26 24 22 23 22 22 24 24 24 27 33 37 39 41 43 44 45 47 48 47 48 47
19 20 19 22 24 21 23 26 24 24 24 20 19 22 24 23 24 26 26 28 31 32 33 32 35 41 43 42 41 44 45 45 48 51 53 53 53 56 57 57 56 55 52 50 54 62 65 68 69 61 54 53 52 53 53 50 47 42 39 41 39 36 36 41 46 45 45 43 37 32 28 27 30 31 30 28 24 23 24 23 23 24 23 21 22 28 31 32 33 36 38 39 41 44 44 47 49
23 22 19 21 23 22 24 25 23 25 28 24 20 25 29 24 25 31 29 30 34 37 36 34 39 45 45 45 47 48 47 45 47 50 53 53 53 56 57 55 54 54 54 53 55 61 61 60 63 60 55 57 56 52 50 49 47 42 40 42 43 44 45 46 43 41 42 41 36 34 32 29 31 32 31 28 26 24 23 23 23 24 25 24 22 24 26 27 30 34 35 36 37 38 39 42 47
27 27 23 22 21 23 25 24 23 27 31 28 20 23 30 28 28 31 30 31 37 39 38 38 42 47 47 48 50 49 46 44 45 47 50 54 56 58 58 57 58 57 57 58 60 61 58 55 60 58 51 54 59 54 48 48 46 42 43 46 49 51 47 41 39 38 39 38 35 37 38 34 33 34 34 32 31 28 26 27 26 25 29 31 28 26 25 25 27 28 30 32 35 37 37 38 41
29 28 24 23 22 23 24 23 24 26 29 29 25 22 26 31 31 28 30 36 40 40 39 41 45 48 49 48 50 50 47 45 45 45 48 56 61 62 63 62 63 63 62 62 61 60 57 55 58 59 51 52 59 58 51 50 48 43 44 46 48 48 43 39 39 38 38 37 35 37 42 39 34 34 35 35 33 30 29 31 30 27 28 33 35 31 27 26 26 26 27 29 33 36 37 38 38
30 27 23 23 23 23 24 24 25 27 26 28 32 27 25 34 34 28 32 38 41 42 40 41 44 46 48 49 51 51 49 47 46 45 47 54 58 60 63 63 61 63 65 64 63 62 61 60 61 63 60 57 58 58 56 55 50 45 44 43 41 41 40 39 38 37 37 38 37 37 41 43 40 38 36 33 31 27 26 29 30 26 23 27 32 29 26 26 27 25 24 27 32 35 36 35 35
27 26 23 24 23 23 24 25 27 30 28 28 33 32 27 33 36 32 35 37 38 39 37 37 41 43 44 47 50 51 51 49 46 47 49 50 51 54 57 58 58 62 68 65 63 65 65 65 70 73 72 71 67 64 64 62 55 48 45 43 41 40 40 39 39 38 39 40 40 40 41 44 45 42 35 29 26 23 22 24 25 23 19 18 23 25 25 27 27 25 24 25 27 34 38 34 31
25 25 24 24 25 24 24 28 31 30 31 31 32 32 27 30 37 38 39 38 36 36 36 38 40 39 40 44 48 50 52 50 47 50 51 47 51 56 55 57 61 67 74 71 67 69 66 66 73 76 76 80 78 73 71 68 62 54 48 46 45 43 43 43 43 41 42 43 43 41 40 40 41 40 36 30 26 22 21 21 22 21 18 16 19 25 25 25 26 25 22 20 19 26 36 36 33
26 26 26 25 28 28 25 29 32 28 31 35 34 33 28 29 39 41 39 38 38 38 39 40 40 41 42 43 46 51 54 53 50 51 49 48 56 61 57 59 62 64 72 75 76 78 72 67 69 70 75 82 81 80 77 72 69 62 53 52 53 50 47 48 47 46 47 48 46 44 41 40 42 41 37 33 29 24 21 21 22 20 18 16 16 18 19 21 25 24 18 16 14 15 23 30 31
27 27 27 27 29 33 27 26 30 28 32 37 35 34 30 30 37 39 38 41 42 41 42 42 43 44 45 44 44 50 55 54 52 52 52 55 63 66 61 60 60 61 65 70 73 73 69 68 70 71 78 82 81 82 80 74 72 67 59 59 60 55 50 51 52 51 51 51 50 49 46 46 48 45 40 37 33 27 24 23 22 19 17 16 14 14 14 16 22 24 18 14 13 12 13 17 19
29 27 27 27 29 34 31 27 29 29 32 36 35 33 31 33 39 38 38 42 42 44 44 45 45 45 45 45 44 48 53 54 56 57 57 61 69 69 64 61 60 63 66 66 67 66 63 66 71 73 79 82 80 83 82 78 75 70 66 65 63 59 55 52 52 54 54 54 54 55 52 49 51 49 45 41 36 30 27 27 25 21 18 16 15 15 15 14 17 19 16 13 12 12 12 12 12
34 28 26 28 29 31 32 33 34 32 32 36 35 32 31 35 40 39 40 43 43 44 45 45 46 46 45 46 45 48 52 53 56 59 62 68 73 70 63 59 60 67 73 71 67 68 65 64 66 69 73 76 78 82 83 81 80 74 69 65 62 61 59 54 53 54 55 55 57 60 57 51 52 52 49 45 40 36 34 33 32 27 24 22 20 20 20 18 18 18 17 15 15 13 13 12 11
38 34 29 28 28 30 32 33 34 31 31 34 34 34 33 33 36 38 40 44 45 45 46 46 47 47 47 47 47 49 51 52 55 59 67 74 75 72 68 63 60 63 70 72 67 66 66 65 66 67 68 70 73 76 78 78 77 72 66 63 61 63 62 56 52 53 54 56 59 62 60 54 53 54 51 48 46 44 42 40 38 35 32 29 28 26 26 26 24 24 22 22 21 20 19 18 16
37 39 35 32 30 31 31 32 34 31 30 32 34 35 35 33 37 38 39 44 48 48 48 49 49 48 48 48 48 50 52 53 54 59 68 74 73 71 71 72 70 64 65 69 66 62 62 64 68 68 68 68 69 71 71 71 72 69 64 62 61 61 59 53 49 49 52 56 61 63 61 55 54 54 53 51 50 48 45 43 41 40 38 35 34 32 31 30 29 29 28 27 27 26 26 25 24
32 35 36 35 35 34 31 32 34 33 32 32 33 34 33 34 39 43 44 47 49 49 50 51 51 50 50 49 50 51 53 54 54 56 64 68 68 67 65 69 76 74 70 71 66 63 65 66 66 68 69 70 70 72 71 70 71 69 65 61 57 55 54 52 49 48 50 54 57 60 58 54 53 54 54 55 54 49 46 44 42 41 41 39 38 37 36 34 34 33 33 31 31 31 31 31 30
31 31 32 34 36 36 37 36 34 33 34 34 35 34 31 33 41 46 49 50 48 47 49 49 49 49 49 47 47 49 50 50 49 50 55 57 58 63 67 70 74 74 72 72 67 63 68 69 66 67 70 69 69 70 70 69 69 67 61 56 54 53 53 52 50 48 51 54 54 55 57 54 53 56 55 55 56 51 47 45 43 43 43 42 41 41 40 39 37 36 36 36 34 35 35 35 35
34 33 33 32 33 33 36 38 36 35 35 37 38 34 33 40 44 44 46 46 44 44 45 46 45 45 45 44 45 49 50 49 48 48 51 52 51 56 63 72 77 75 71 72 66 59 62 66 65 64 65 66 66 64 63 63 64 63 58 54 53 54 53 52 50 47 48 50 51 53 54 51 50 55 54 53 55 54 49 46 44 46 48 47 45 46 45 43 41 40 40 39 39 41 42 40 39
37 38 36 35 34 33 34 35 34 34 34 37 38 34 40 48 45 40 41 42 42 44 46 47 47 46 47 48 50 53 55 55 54 52 54 57 57 59 64 70 76 76 72 70 64 58 59 62 63 61 61 62 63 62 60 58 58 59 58 57 56 56 56 56 55 50 47 47 49 51 50 46 44 48 50 49 49 48 48 46 45 47 51 52 52 53 52 51 51 48 46 45 45 47 48 46 44